Hourly Data Report for September 27, 2010

IQALUIT CLIMATE
NUNAVUT

63°44'50.000" N
68°32'40.000" W
33.50 m
2402592
71321
XFB

Download Data

Hourly Data (September 2010)
Hourly Data Report for September 27, 2010
TIME
LST
Temp Definition
°C
Dew Point Definition
°C
Rel Hum Definition
%
Precip. Amount Definition
mm

Wind Dir Definition
10's deg

Wind Spd Definition
km/h
Visibility Definition
km
Stn Press Definition
kPa
Hmdx Definition


Wind Chill Definition


Weather Definition


00:00 3.8 3.2 96   13 28   98.42     LegendNANA
01:00 4.0 3.0 93   13 24   98.35     LegendNANA
02:00 3.9 3.1 95   14 22   98.31     LegendNANA
03:00 3.9 2.9 93   14 26   98.29     LegendNANA
04:00 4.1 3.1 93   14 24   98.27     LegendNANA
05:00 4.2 3.3 94   13 19   98.28     LegendNANA
06:00 4.8 3.8 93   13 20   98.27     LegendNANA
07:00 5.1 3.9 92   12 20   98.25     LegendNANA
08:00 4.3 3.5 95   14 19   98.22     LegendNANA
09:00 5.0 4.0 93   14 17   98.23     LegendNANA
10:00 5.0 4.2 95   14 13   98.24     LegendNANA
11:00 5.9 4.4 90   13 19   98.18     LegendNANA
12:00 5.6 4.3 91   15 13   98.13     LegendNANA
13:00 5.8 4.5 91   13 11   98.09     LegendNANA
14:00 6.4 4.9 90   14 15   98.07     LegendNANA
15:00 5.6 4.5 93   16 11   98.06     LegendNANA
16:00 4.7 4.2 97   16 4   98.06     LegendNANA
17:00 4.1 4.0 99   17 6   98.06     LegendNANA
18:00 3.1 3.1 100   25 6   98.12     LegendNANA
19:00 3.9 3.9 100   29 11   98.12     LegendNANA
20:00 3.7 3.7 100   33 6   98.14     LegendNANA
21:00 3.8 3.3 97   32 7   98.15     LegendNANA
22:00 3.8 3.2 96   31 6   98.18     LegendNANA
23:00 3.7 2.8 94   30 15   98.19     LegendNANA

Notes on Data Quality.

Legend

  • E = Estimated
  • M = Missing
  • NA = Not Available*
  • [empty] = Indicates an unobserved value
Date modified: